Location: Unspecified
(35.7250°N, 0.0000°E)
Time: 02:39:05
(UTC+00:00)

Vanguard 1 Rocket - Pass Details

Date: 18 June 2019
Orbit: 651 x 4225 km, 34.3° (Epoch: 22 July)

Event Time Altitude Azimuth Distance (km) Brightness Sun altitude
Rises 22:24:10 0° 279° (W) 4,466 11.4 -26.6°
Reaches altitude 10° 22:27:50 10° 275° (W) 3,031 10.4 -26.9°
Enters shadow 22:33:09 45° 241° (WSW) 1,126 7.7 -27.3°
Maximum altitude 22:34:18 54° 200° (SSW) 954 - -27.4°
Drops below altitude 10° 22:38:43 10° 122° (ESE) 2,089 - -27.7°
Sets 22:40:50 0° 117° (ESE) 2,953 - -27.9°
